Buffalo, SD

12:47 AM MST on February 23, 2017 (GMT -0700)
Buffalo

Weather History for K2WX - December, 2012

Change the Weather History Date:

Wednesday, December 19, 2012

  Actual Average Record
Temperature  
Mean Temperature 20 °F 20 °F  
Max Temperature 30 °F 31 °F 55 °F (2004)
Min Temperature 10 °F 10 °F -15 °F (1996)
Degree Days  
Heating Degree Days 45 45  
Month to date heating degree days 689 823  
Since 1 July heating degree days 2389 2721  
Cooling Degree Days 0 0  
Month to date cooling degree days 0 0  
Year to date cooling degree days 853 513  
Moisture  
Dew Point 11 °F    
Average Humidity 67    
Maximum Humidity 88    
Minimum Humidity 46    
Precipitation  
Precipitation 0.00 in 0.01 in 0.10 in (2013)
Month to date precipitation 0.09 0.15  
Year to date precipitation 8.37 14.38  
Sea Level Pressure  
Sea Level Pressure 29.99 in    
Wind  
Wind Speed 13 mph (WNW)    
Max Wind Speed 29 mph    
Max Gust Speed 33 mph    
T = Trace of Precipitation, MM = Missing Value Source: NWS Daily Summary

Daily Weather History Graph

Daily Weather History Graph

Search for Another Location

Airport or City:

Trip Planner

Search our weather history database for the weather conditions in past years. The results will help you decide how hot, cold, wet, or windy it might be!

Date:

Astronomy

Dec. 19, 2012 Rise Set
Actual Time 7:30 AM MST 4:12 PM MST
Civil Twilight 6:56 AM MST 4:46 PM MST
Nautical Twilight 6:18 AM MST 5:24 PM MST
Astronomical Twilight 5:42 AM MST 6:00 PM MST
Moon 11:20 AM MST (12/19) No Moon Set
Length of Visible Light 9h 50m
Length of Day
8h 41m
Waxing Crescent, 45% of the Moon is Illuminated
Dec 19
Waxing Crescent
Dec 19
First Quarter
Dec 28
Full
Jan 4
Last Quarter
Jan 11
New

Hourly Weather History & Observations

Time (MST) Temp. Windchill Dew Point Humidity Pressure Visibility Wind Dir Wind Speed Gust Speed Precip Events Conditions
12:56 AM 16.0 °F 2.3 °F 8.1 °F 71% 29.77 in - West 12.7 mph - N/A   Unknown
1:56 AM 17.1 °F 5.8 °F 9.0 °F 71% 29.80 in - West 9.2 mph - N/A   Unknown
2:56 AM 18.0 °F 4.2 °F 9.0 °F 68% 29.80 in - West 13.8 mph - N/A   Unknown
3:56 AM 16.0 °F 5.3 °F 9.0 °F 74% 29.83 in - WNW 8.1 mph - N/A   Unknown
4:56 AM 18.0 °F 4.2 °F 10.9 °F 74% 29.84 in - West 13.8 mph - N/A   Unknown
5:56 AM 18.0 °F 7.7 °F 14.0 °F 84% 29.88 in - WNW 8.1 mph - N/A   Unknown
6:56 AM 17.1 °F 4.3 °F 12.9 °F 84% 29.91 in - WNW 11.5 mph - N/A   Unknown
7:56 AM 16.0 °F 4.4 °F 12.0 °F 84% 29.94 in - WNW 9.2 mph - N/A   Unknown
8:56 AM 18.0 °F 2.2 °F 14.0 °F 84% 29.97 in - West 18.4 mph - N/A   Unknown
9:56 AM 21.9 °F 5.5 °F 17.1 °F 82% 29.99 in - WNW 24.2 mph - N/A   Unknown
10:56 AM 25.0 °F 10.2 °F 16.0 °F 69% 29.99 in - WNW 21.9 mph - N/A   Unknown
11:56 AM 28.0 °F 13.6 °F 15.1 °F 58% 29.98 in - WNW 24.2 mph 32.2 mph N/A   Unknown
12:56 PM 28.9 °F 15.4 °F 15.1 °F 56% 29.99 in - WNW 21.9 mph 31.1 mph N/A   Unknown
1:56 PM 30.0 °F 16.9 °F 15.1 °F 54% 30.00 in - WNW 21.9 mph 31.1 mph N/A   Unknown
2:56 PM 28.9 °F 15.1 °F 10.9 °F 47% 30.01 in - NW 23.0 mph 28.8 mph N/A   Unknown
3:56 PM 24.1 °F 13.1 °F 10.9 °F 57% 30.05 in - NW 11.5 mph - N/A   Unknown
4:56 PM 21.0 °F 10.6 °F 10.0 °F 63% 30.08 in - WNW 9.2 mph - N/A   Unknown
5:56 PM 17.1 °F 4.3 °F 8.1 °F 68% 30.10 in - WNW 11.5 mph - N/A   Unknown
6:56 PM 18.0 °F 8.7 °F 8.1 °F 65% 30.12 in - WNW 6.9 mph - N/A   Unknown
7:56 PM 16.0 °F 6.3 °F 7.0 °F 68% 30.14 in - WSW 6.9 mph - N/A   Unknown
8:56 PM 12.9 °F - 6.1 °F 74% 30.14 in - Calm Calm - N/A   Unknown
9:56 PM 12.0 °F - 6.1 °F 77% 30.13 in - Calm Calm - N/A   Unknown
10:56 PM 10.9 °F 1.4 °F 6.1 °F 81% 30.13 in - West 5.8 mph - N/A   Unknown
11:56 PM 10.0 °F 0.4 °F 5.0 °F 80% 30.13 in - West 5.8 mph - N/A   Unknown